This is the latest recevied weather packets stored in our database for station/object K1AWR. If no packets are shown the sender has not sent any weather packets the latest 10 day(s).
| Time | Temp. | Humidity | Pressure | Rain* | Wind** | Luminosity | Snow |
|---|---|---|---|---|---|---|---|
| 1778011102 | 26.11° C | 46% | 1007.5 hPa | 0 mm | - | 449 W/m² | - |
| 1778010799 | 26.67° C | 44% | 1007.5 hPa | 0 mm | - | 459 W/m² | - |
| 1778010496 | 26.67° C | 43% | 1007.3 hPa | 0 mm | - | 488 W/m² | - |
| 1778010194 | 27.22° C | 42% | 1007.1 hPa | 0 mm | - | 540 W/m² | - |
| 1778009889 | 27.22° C | 42% | 1007.4 hPa | 0 mm | - | 561 W/m² | - |
| 1778009587 | 26.67° C | 42% | 1007.5 hPa | 0 mm | - | 492 W/m² | - |
| 1778009285 | 27.22° C | 42% | 1007.5 hPa | 0 mm | - | 546 W/m² | - |
| 1778008983 | 27.22° C | 43% | 1007.5 hPa | 0 mm | - | 583 W/m² | - |
| 1778008680 | 27.78° C | 40% | 1007.6 hPa | 0 mm | - | 586 W/m² | - |
| 1778008378 | 27.78° C | 43% | 1007.5 hPa | 0 mm | - | 596 W/m² | - |
| 1778008074 | 27.22° C | 41% | 1007.7 hPa | 0 mm | - | 612 W/m² | - |
| 1778007769 | 27.78° C | 41% | 1007.9 hPa | 0 mm | - | 614 W/m² | - |
| 1778007466 | 28.33° C | 42% | 1007.7 hPa | 0 mm | - | 636 W/m² | - |
| 1778007163 | 28.89° C | 41% | 1007.6 hPa | 0 mm | - | 647 W/m² | - |
| 1778006858 | 27.78° C | 40% | 1007.4 hPa | 0 mm | - | 653 W/m² | - |
| 1778006556 | 27.78° C | 43% | 1007.9 hPa | 0 mm | - | 656 W/m² | - |
| 1778006253 | 27.78° C | 41% | 1007.9 hPa | 0 mm | - | 666 W/m² | - |
| 1778005950 | 27.78° C | 43% | 1008.1 hPa | 0 mm | - | 683 W/m² | - |
| 1778005647 | 27.22° C | 44% | 1007.6 hPa | 0 mm | - | 689 W/m² | - |
| 1778005344 | 27.78° C | 42% | 1008 hPa | 0 mm | - | 694 W/m² | - |
| 1778005040 | 27.78° C | 42% | 1007.7 hPa | 0 mm | - | 711 W/m² | - |
| 1778004738 | 27.22° C | 41% | 1008 hPa | 0 mm | - | 714 W/m² | - |
| 1778004434 | 27.22° C | 45% | 1008.1 hPa | 0 mm | - | 721 W/m² | - |
| 1778004131 | 27.22° C | 42% | 1008 hPa | 0 mm | - | 729 W/m² | - |
| 1778003827 | 27.22° C | 45% | 1007.9 hPa | 0 mm | - | 738 W/m² | - |
* Rain latest hour (hover to see other rain measurements)
** Current wind speed in m/s (hover to see current wind gust speed)